User: anonymous   Login
Location: Biharia
(46.4333°N, 22.8000°E)
Time: 06:59:04
(UTC+00:00)
Language:

Cosmos 1626 Rocket - Orbit

View from above orbital plane
View from above orbital plane
View from above satellite
View from above satellite

Ground track
Ground track

The orbit data is extracted from the following two-line orbital elements,

1 15495U 85009B   22016.82804451  .00000209  00000-0  22203-4 0  9993
2 15495  82.5227  58.5884 0019512 200.5358 159.5076 14.83951326977144
Epoch (UTC): 16 January 2022 19:52:23
Eccentricity: 0.0019512
inclination: 82.5227°
perigee height: 603 km
apogee height: 630 km
right ascension of ascending node: 58.5884°
argument of perigee: 200.5358°
revolutions per day: 14.83951326
mean anomaly at epoch: 159.5076°
orbit number at epoch: 97714

The dashed part of the orbit path shows where the satellite is in the earth's shadow,  

DLR